www.pogodaiklimat.ru
ПОГОДА в Пайнвилле
Время
и дата
20:35 18.06
20:55 18.06
21:15 18.06
21:35 18.06
21:55 18.06
22:15 18.06
22:35 18.06
22:55 18.06
23:15 18.06
23:35 18.06
23:55 18.06
00:15 19.06
00:35 19.06
00:55 19.06
01:15 19.06
01:35 19.06
01:55 19.06
02:15 19.06
02:35 19.06
02:55 19.06
03:15 19.06
03:35 19.06
03:55 19.06
04:15 19.06
04:35 19.06
04:55 19.06
05:15 19.06
05:35 19.06
05:55 19.06
06:15 19.06
06:35 19.06
06:55 19.06
07:15 19.06
07:35 19.06
07:55 19.06
08:15 19.06
08:35 19.06
08:55 19.06
09:15 19.06
09:35 19.06
09:55 19.06
10:15 19.06
10:35 19.06
10:55 19.06
11:15 19.06
11:35 19.06
11:55 19.06
12:15 19.06
Ветер
(напр.,м/с)
Видим. Явления Облачность Т
(С)
Тd
(С)
f
(%)
Тe
(С)
Тes
(С)
Комфортность P
(гПа)
Po
(гПа)
Тmin
(С)
Tmax
(С)
R
(мм)
R24
(мм)
S
(см)
16 км ясно +23.7 +21.8 89 +30 +30 очень
душно
961.8
16 км ясно +23.4 +21.6 90 +32 +32 очень
душно
962.1
16 км ясно +23.2 +21.6 91 +31 +31 очень
душно
962.1
16 км ясно +23.0 +21.4 91 +31 +31 очень
душно
962.1
16 км ясно +22.6 +21.2 92 +30 +30 очень
душно
962.1
11 км ясно +22.5 +21.1 92 +30 +30 очень
душно
962.1
11 км ясно +22.2 +21.0 93 +29 +29 очень
душно
962.4
11 км ясно +22.0 +20.8 93 +28 +28 душно 962.4
11 км ясно +21.6 +20.6 94 +27 +27 душно 962.4
11 км ясно +21.5 +20.6 95 +27 +27 душно 962.1
8 км дымка ясно +21.1 +20.3 95 +26 +26 душно 962.1
8 км дымка ясно +20.8 +20.1 96 +25 +25 комфорт 962.4
8 км дымка ясно +20.6 +20.0 96 +25 +25 комфорт 962.4
11 км ясно +20.3 +19.6 96 +24 +24 комфорт 962.1 +20.3 +25.1
8 км дымка ясно +20.3 +19.7 96 +24 +24 комфорт 962.1
8 км дымка ясно +20.2 +19.6 96 +24 +24 комфорт 962.1
11 км ясно +19.8 +19.3 97 +23 +23 комфорт 962.1
6 км дымка ясно +20.0 +19.5 97 +23 +23 комфорт 962.1
5 км дымка ясно +19.7 +19.2 97 +22 +22 комфорт 962.7
5 км дымка ясно +19.6 +19.1 97 +22 +22 комфорт 962.7
5 км дымка ясно +19.5 +19.0 97 +22 +22 комфорт 962.7
5 км дымка ясно +19.3 +19.0 98 +21 +21 комфорт 963.0
6 км дымка 5/5 60 м +19.2 +18.8 98 +21 +21 комфорт 963.0
11 км 8/8 60 м +19.0 +18.5 97 +21 +21 комфорт 963.0
8 км дымка 10/10 60 м +19.0 +18.6 98 +21 +21 комфорт 963.4
6 км дымка 8/8 60 м +18.9 +18.5 98 +20 +20 963.4
8 км дымка 8/8 60 м +18.6 +18.1 97 +20 +20 963.7
6 км дымка 5/5 60 м +18.5 +18.1 98 +19 +19 964.0
8 км дымка 5/5 60 м +18.7 +18.4 98 +20 +20 964.3
11 км ясно +19.0 +18.6 98 +21 +21 комфорт 964.3
16 км ясно +19.8 +19.5 98 +23 +24 комфорт 964.6
16 км ясно +20.2 +19.7 97 +24 +25 комфорт 964.6 +18.5 +20.3
16 км ясно +20.6 +20.1 97 +25 +29 комфорт 964.9
16 км ясно +21.6 +21.0 96 +27 +31 душно 964.9
16 км ясно +23.5 +19.9 80 +29 +32 душно 964.9
16 км ясно +24.7 +19.2 71 +30 +38 очень
душно
965.3
16 км ясно +25.1 +18.9 68 +30 +38 душно 965.3
16 км ясно +25.6 +19.2 68 +31 +39 очень
душно
965.3
16 км ясно +27.1 +18.5 59 +32 +46 очень
душно
964.9
16 км ясно +27.1 +18.7 60 +32 +47 очень
душно
965.3
16 км ясно +28.1 +18.8 57 +33 +48 очень
душно
964.9
16 км 5/5 1020 м +28.4 +18.4 55 +33 +44 очень
душно
964.9
16 км 5/5 1050 м +28.5 +18.4 54 +33 +44 очень
душно
964.9
16 км 5/5 1110 м +29.0 +17.9 51 +33 +44 очень
душно
964.9
16 км 5/5 1170 м +28.5 +18.1 53 +33 +46 очень
душно
964.9
16 км ясно +29.6 +18.1 50 +34 +59 опасность
солнечного
удара
964.9
16 км ясно +29.5 +17.1 47 +33 +59 опасность
солнечного
удара
964.9
16 км ясно +29.5 +17.2 48 +34 +61 опасность
солнечного
удара
964.9
Местоположение метеостанции Kee Field Airport: широта 37.6003 долгота -81.5592 высота над уровнем моря 544 м.
В архиве по умолчанию представлена погода в Пайнвилле за последние 1-2 суток. Обновление информации о фактической погоде в базе происходит ежечасно! Архивные данные за месяц целиком и за предыдущие месяцы Вы можете получить, выбрав интересующий диапазон дат из раскрывающегося списка и нажав кнопку "Ввод!".
Внимание! Архив погоды МЕТАР в базе сайта по станциям, не включенным в климатический монитор, хранится не более 60 дней. Нет смысла пытаться выбрать более раннюю дату.
*Определитесь, кто Вы:
Внимание! Время в таблицах - местное (без учета летнего времени). Для получения всемирного времени необходимо вычесть поправку, которая равна -5 ч.
Смотрите также архив погоды в соседних городах и на ближайших метеорологических станциях:
Партнеры нашего сайта:      
Пояснения к столбцам:
  • Ветер - указаны скорость ветра в м/с - средняя за 10 мин, порывы в срок и между сроками (в фигурных скобках) и направление, откуда дует ветер: С - северный,
  • СВ - северо-восточный, В - восточный, ЮВ - юго-восточный, Ю - южный, ЮЗ - юго-западный, З - западный, СЗ - северо-западный.
  • Видимость - горизонтальная дальность видимости в метрах или километрах. При видимости от 1 до 10 км при отсутствии осадков обычно наблюдается дымка, при ухудшении видимости до 1 км и менее - туман. В сухую погоду видимость может ухудшаться дымом, пылью или мглою.
  • Явления - указаны атмосферные явления, наблюдавшиеся в срок или в последний час перед сроком; фигурными скобками обозначены явления, наблюдавшиеся между сроками (за 1-3 часа до срока); квадратными скобками обозначены град или гололедные отложения с указанием их диаметра в мм.
  • Облачность - указаны через наклонную черту общая и нижняя облачность в баллах и высота нижней границы облаков в метрах; квадратными скобками обозначены формы облаков: Ci - перистые, Cs - перисто-слоистые, Cc - перисто-кучевые, Ac - высококучевые, As - высокослоистые, Sc - слоисто-кучевые, Ns - слоисто-дождевые, Cu - кучевые, Cb - кучево-дождевые. Подробнее классификацию облаков см. в Атласе облаков (PDF).
  • T - Температура воздуха - температура, измеренная на высоте 2 м над землей.
  • Td - Температура точки росы - температура, при понижении до которой содержащийся в воздухе водяной пар достигнет насыщения.
  • f - Относительная влажность воздуха - влажноcть воздуха, измеренная на высоте 2 м над землей.
  • Te - Эффективная температура - температура, которую ощущает одетый по сезону человек в тени. Характеристика душности погоды. При расчете учитывается влияние влажности воздуха и скорости ветра на теплоощущения человека.
  • Tes - Эффективная температура на солнце - температура, которую ощущает человек, с поправкой на солнечный нагрев. Характеристика знойности погоды. Зависит от высоты солнца над горизонтом, облачности и скорости ветра. Ночью, в пасмурную погоду, а также при ветре 12 м/с и более поправка равна нулю.
  • P - Атмосферное давление - приведенное к уровню моря атмосферное давление.
  • Po - Атмосферное давление - измеренное на уровне метеостанции атмосферное давление.
  • Tmin - Минимальная температура - минимум температуры воздуха на высоте 2 м над землей.
  • Tmax - Максимальная температура - максимум температуры воздуха на высоте 2 м над землей.
  • R - Количество осадков - Количество выпавших осадков за период времени, мм. При наведении курсора мыши на число - период времени, за который выпало указанное количество осадков.
  • R24 - Количество осадков - Количество выпавших осадков за 24 часа, мм.
  • S - Снежный покров - Высота снежного покрова, см. При наведении курсора мыши на число - состояние снежного покрова и степень покрытия местности в баллах.